Starlink 6149

operational
NORAD ID: 57122 Int'l Des: 2023-090 Owner: SPXS Country: US Constellation: starlink
LEOCIRCULAR

Über Starlink 6149

Beschreibung wird geladen...

Live-Position

3D-Globus wird geladen...

Nächste Überflüge

Höhenverlauf

Altitude vs Time

uPlot chart will show altitude changes over time

Zweizeiliger Elementsatz

1 57122U 23090X 25258.03985153 -.00000458 00000-0 -18820-4 0 9999
2 57122 43.0038 148.8594 0001033 273.5019 86.5705 15.02529528123994
Epoch: 15. Sept. 2025 • Age: 20 hours

Aktueller Status

Höhe 562.4 km
Geschwindigkeit 7.59 km/s
Subsatellitenpunkt 40.52°N, 45.06°W
Startdatum 23. Juni 2023
Alter 2.2 years
Typ internet

Technische Details

Klassifizierung Payload
Masse 305.00 kg
Trockenmasse 290.00 kg
Gesamtmasse 305.00 kg
Länge 0.20 m
Durchmesser 2.80 m
Spannweite 9.00 m
Form Box + pan
Hersteller SPXS
Bus-Typ Starlink
Phasenstatus In Orbit
Besitzer/Staat SPXS/US

Große Konstellationen

Loading constellations...